Location: Taaricht
(32.5378°N, 5.4251°W)
Time: 19:13:19
(UTC+00:00)

ISS - Pass Details

Date: 09 April 2020
Orbit: 417 x 420 km, 51.6° (Epoch: 29 May)

Event Time Altitude Azimuth Distance (km) Brightness Sun altitude
Rises 19:01:16 0° 311° (NW) 2,361 1.3 -3.7°
Reaches altitude 10° 19:03:23 10° 308° (NW) 1,494 0.3 -4.1°
Maximum altitude 19:06:42 64° 227° (SW) 462 -3.4 -4.8°
Drops below altitude 10° 19:10:00 10° 145° (SE) 1,483 -1.4 -5.5°
Enters shadow 19:11:41 - 142° (SE) 2,174 -0.6 -5.8°
